Location: Unspecified
(0.0000°N, 0.0000°E)
Time: 03:36:42
(UTC+00:00)

Tiangong - Pass Details

Date: 05 March 2026
Orbit: 380 x 389 km, 41.5° (Epoch: 16 March)

Event Time Altitude Azimuth Distance (km) Brightness Sun altitude
Exits shadow 05:40:37 10° 275° (W) 1,410 0.0 -7.7°
Reaches altitude 10° 05:40:38 10° 275° (W) 1,408 0.0 -7.7°
Maximum altitude 05:42:45 17° 317° (NW) 1,084 -0.3 -7.2°
Drops below altitude 10° 05:44:52 10° 359° (N) 1,407 0.6 -6.6°
Sets 05:47:28 0° 21° (NNE) 2,259 2.0 -6.0°
